Location: Arbon
(43.0005°N, 0.7472°E)
Time: 01:23:23
(UTC+00:00)

Cosmos 2142 Rocket - Pass Details

Date: 07 August 2020
Orbit: 952 x 1005 km, 83.0° (Epoch: 19 September)

Event Time Altitude Azimuth Distance (km) Brightness Sun altitude
Exits shadow 02:00:54 55° 201° (SSW) 1,184 4.5 -24.8°
Maximum altitude 02:02:25 81° 278° (W) 1,017 4.4 -24.6°
Drops below altitude 10° 02:08:51 10° 6° (N) 2,787 7.7 -24.0°
Sets 02:11:24 0° 7° (N) 3,743 8.6 -23.7°
